www.pogodaiklimat.ru
ПОГОДА в Аплтоне
Время
и дата
15:33 24.10
15:53 24.10
16:13 24.10
16:33 24.10
16:53 24.10
17:13 24.10
17:33 24.10
17:53 24.10
18:13 24.10
18:33 24.10
18:53 24.10
19:13 24.10
19:33 24.10
19:53 24.10
20:13 24.10
20:33 24.10
20:53 24.10
21:13 24.10
21:33 24.10
21:53 24.10
22:13 24.10
22:33 24.10
22:53 24.10
23:13 24.10
23:33 24.10
23:53 24.10
00:13 25.10
00:33 25.10
00:53 25.10
01:13 25.10
01:33 25.10
01:53 25.10
02:13 25.10
02:33 25.10
02:53 25.10
03:13 25.10
03:33 25.10
03:53 25.10
04:13 25.10
04:33 25.10
04:53 25.10
05:13 25.10
05:33 25.10
05:53 25.10
06:13 25.10
06:33 25.10
06:53 25.10
07:13 25.10
Ветер
(напр.,м/с)
Видим. Явления Облачность Т
(С)
Тd
(С)
f
(%)
Тe
(С)
Тes
(С)
Комфортность P
(гПа)
Po
(гПа)
Тmin
(С)
Tmax
(С)
R
(мм)
R24
(мм)
S
(см)
С 1 16 км ясно -2.0 -8.0 63 -7 -4 988.8
С 2 16 км 5/0 3600 м
[Ac]
-2.0 -8.0 63 -7 -6 988.8
С 2 16 км ясно -2.0 -8.0 63 -7 -7 988.8
С 2 16 км 5/0 3300 м
[Ac]
-2.0 -8.0 63 -7 -7 989.1
С 2 16 км 5/0 2100 м
[Ac]
-2.0 -8.0 63 -7 -7 989.1
С 2 16 км 8/0 2100 м
[Ac]
-2.0 -8.0 63 -7 -7 989.1
С 1 16 км 5/0 3300 м
[Ac]
-2.0 -8.0 63 -7 -7 989.4
СВ 1 16 км ясно -3.0 -7.0 74 -7 -7 989.1
С 1 16 км ясно -3.0 -7.0 74 -7 -7 989.4
С 1 16 км 8/0 2100 м
[Ac]
-3.0 -7.0 74 -7 -7 990.1
С 1 16 км 5/0 2100 м
[Ac]
-3.0 -7.0 74 -7 -7 990.1
С 1 16 км ясно -3.0 -7.0 74 -7 -7 989.8
С 1 16 км ясно -3.0 -7.0 74 -7 -7 990.1
С 1 16 км ясно -3.0 -7.0 74 -7 -7 990.4
С 2 16 км ясно -3.0 -7.0 74 -9 -9 990.4
С 2 16 км ясно -3.0 -7.0 74 -9 -9 990.7
С 2 16 км 8/8 1800 м -3.0 -8.0 68 -9 -9 991.1
С 2 16 км 8/8 1800 м -3.0 -7.0 74 -9 -9 991.1
С 1 16 км 5/5 1800 м -3.0 -8.0 68 -8 -8 991.1
С 2 16 км ясно -3.0 -7.0 74 -9 -9 990.7
С 2 16 км ясно -3.0 -7.0 74 -9 -9 990.7
С 2 16 км ясно -3.0 -7.0 74 -9 -9 991.1
С 2 16 км ясно -3.0 -7.0 74 -9 -9 991.1
С 2 16 км ясно -3.0 -7.0 74 -9 -9 991.4
С 2 16 км ясно -3.0 -7.0 74 -9 -9 991.4
С 2 16 км 5/5 960 м -3.0 -7.0 74 -9 -9 991.4
С 1 11 км ясно -3.0 -7.0 74 -8 -8 991.4
С 2 5 км слабый снег 8/8 390 м -3.0 -6.0 80 -9 -9 991.1
С 2 5 км слабый снег 10/10 360 м -3.0 -6.0 80 -9 -9 991.4
СЗ 1 5 км слабый снег 10/10 450 м -4.0 -6.0 86 -9 -9 991.7
СЗ 1 4 км слабый снег 10/10 390 м -4.0 -6.0 86 -8 -8 992.0
С 1 4 км слабый снег 10/10 390 м -4.0 -6.0 86 -9 -9 992.0
С 1 8 км слабый снег 10/10 390 м -4.0 -6.0 86 -9 -9 992.0
С 1 2 км слабый снег 10/10 300 м -4.0 -6.0 86 -9 -9 992.0
С 1 3 км слабый снег 10/10 300 м -4.0 -6.0 86 -9 -9 991.7
С 1 4 км слабый снег 10/10 300 м -3.0 -5.0 86 -8 -8 991.4
СВ 1 5 км слабый снег 10/10 300 м -4.0 -6.0 86 -9 -9 991.1
С 1 6 км слабый снег 5/5 300 м -4.0 -6.0 86 -9 -9 991.4
С 1 11 км слабый снег 5/5 450 м -4.0 -6.0 86 -9 -9 991.4
С 2 5 км слабый снег 8/8 330 м -4.0 -6.0 86 -10 -10 991.1
С 2 4 км слабый снег 10/10 390 м -4.0 -6.0 86 -10 -10 991.4
С 2 5 км слабый снег 10/10 300 м -4.0 -6.0 86 -10 -10 991.4
С 2 5 км слабый снег 10/10 300 м -4.0 -6.0 86 -10 -10 991.4
С 2 5 км слабый снег 10/10 390 м -4.0 -6.0 86 -10 -10 991.7
С 2 6 км слабый снег 10/10 390 м -4.0 -6.0 86 -10 -10 991.7
С 1 4 км слабый снег 10/10 390 м -4.0 -6.0 86 -9 -9 991.7
С 2 4 км слабый снег 10/10 390 м -4.0 -6.0 86 -10 -10 991.7
С 2 5 км слабый снег 10/10 1200 м -4.0 -6.0 86 -10 -10 991.7
Местоположение метеостанции Appleton Municipal Airport: широта 45.2275 долгота -96.0042 высота над уровнем моря 310 м.
В архиве по умолчанию представлена погода в Аплтоне за последние 1-2 суток. Обновление информации о фактической погоде в базе происходит ежечасно! Архивные данные за месяц целиком и за предыдущие месяцы Вы можете получить, выбрав интересующий диапазон дат из раскрывающегося списка и нажав кнопку "Ввод!".
Внимание! Архив погоды МЕТАР в базе сайта по станциям, не включенным в климатический монитор, хранится не более 60 дней. Нет смысла пытаться выбрать более раннюю дату.
*Определитесь, кто Вы:
Внимание! Время в таблицах - местное (без учета летнего времени). Для получения всемирного времени необходимо вычесть поправку, которая равна -6 ч.
Смотрите также архив погоды в соседних городах и на ближайших метеорологических станциях:
Партнеры нашего сайта:      
Пояснения к столбцам:
  • Ветер - указаны скорость ветра в м/с - средняя за 10 мин, порывы в срок и между сроками (в фигурных скобках) и направление, откуда дует ветер: С - северный,
  • СВ - северо-восточный, В - восточный, ЮВ - юго-восточный, Ю - южный, ЮЗ - юго-западный, З - западный, СЗ - северо-западный.
  • Видимость - горизонтальная дальность видимости в метрах или километрах. При видимости от 1 до 10 км при отсутствии осадков обычно наблюдается дымка, при ухудшении видимости до 1 км и менее - туман. В сухую погоду видимость может ухудшаться дымом, пылью или мглою.
  • Явления - указаны атмосферные явления, наблюдавшиеся в срок или в последний час перед сроком; фигурными скобками обозначены явления, наблюдавшиеся между сроками (за 1-3 часа до срока); квадратными скобками обозначены град или гололедные отложения с указанием их диаметра в мм.
  • Облачность - указаны через наклонную черту общая и нижняя облачность в баллах и высота нижней границы облаков в метрах; квадратными скобками обозначены формы облаков: Ci - перистые, Cs - перисто-слоистые, Cc - перисто-кучевые, Ac - высококучевые, As - высокослоистые, Sc - слоисто-кучевые, Ns - слоисто-дождевые, Cu - кучевые, Cb - кучево-дождевые. Подробнее классификацию облаков см. в Атласе облаков (PDF).
  • T - Температура воздуха - температура, измеренная на высоте 2 м над землей.
  • Td - Температура точки росы - температура, при понижении до которой содержащийся в воздухе водяной пар достигнет насыщения.
  • f - Относительная влажность воздуха - влажноcть воздуха, измеренная на высоте 2 м над землей.
  • Te - Эффективная температура - температура, которую ощущает одетый по сезону человек в тени. Характеристика душности погоды. При расчете учитывается влияние влажности воздуха и скорости ветра на теплоощущения человека.
  • Tes - Эффективная температура на солнце - температура, которую ощущает человек, с поправкой на солнечный нагрев. Характеристика знойности погоды. Зависит от высоты солнца над горизонтом, облачности и скорости ветра. Ночью, в пасмурную погоду, а также при ветре 12 м/с и более поправка равна нулю.
  • P - Атмосферное давление - приведенное к уровню моря атмосферное давление.
  • Po - Атмосферное давление - измеренное на уровне метеостанции атмосферное давление.
  • Tmin - Минимальная температура - минимум температуры воздуха на высоте 2 м над землей.
  • Tmax - Максимальная температура - максимум температуры воздуха на высоте 2 м над землей.
  • R - Количество осадков - Количество выпавших осадков за период времени, мм. При наведении курсора мыши на число - период времени, за который выпало указанное количество осадков.
  • R24 - Количество осадков - Количество выпавших осадков за 24 часа, мм.
  • S - Снежный покров - Высота снежного покрова, см. При наведении курсора мыши на число - состояние снежного покрова и степень покрытия местности в баллах.